When you browse on this site, cookies collect data to enhance your experience and personalize the content and advertising you see.
Visit our Privacy Policy to learn more. By continuing to use the site, you agree to this use of cookies and data.

Stündliche Wetter Duisburg

Heute, 6 Juli, Montag

Zeit Temperatur Niederschläge Wind Luftdruck Luftfeuchtigkeit
00:00 +15°C° 0 mm 5 m/S 756 mmHg 71%
01:00 +14°C° 0.1 mm 5 m/S 756 mmHg 73%
02:00 +14°C° 0.1 mm 5 m/S 756 mmHg 75%
03:00 +13°C° 0.1 mm 5 m/S 756 mmHg 77%
04:00 +14°C° 0 mm 6 m/S 756 mmHg 74%
05:00 +14°C° 0 mm 6 m/S 757 mmHg 70%
06:00 +14°C° 0 mm 6 m/S 757 mmHg 67%
07:00 +15°C° 0.1 mm 6 m/S 757 mmHg 66%
08:00 +16°C° 0.1 mm 7 m/S 757 mmHg 65%
09:00 +16°C° 0.1 mm 7 m/S 758 mmHg 64%
10:00 +17°C° 0.4 mm 7 m/S 758 mmHg 61%
11:00 +17°C° 0.4 mm 7 m/S 758 mmHg 59%
12:00 +18°C° 0.4 mm 7 m/S 758 mmHg 57%
13:00 +18°C° 0.3 mm 7 m/S 759 mmHg 55%
14:00 +18°C° 0.3 mm 7 m/S 759 mmHg 53%
15:00 +20°C° 0.3 mm 7 m/S 759 mmHg 51%
16:00 +19°C° 0.1 mm 6 m/S 760 mmHg 55%
17:00 +17°C° 0.1 mm 6 m/S 760 mmHg 59%
18:00 +17°C° 0.1 mm 5 m/S 760 mmHg 62%
19:00 +17°C° 0 mm 4 m/S 761 mmHg 67%
20:00 +14°C° 0 mm 4 m/S 762 mmHg 73%
21:00 +13°C° 0 mm 3 m/S 762 mmHg 78%
22:00 +13°C° 0 mm 3 m/S 762 mmHg 80%
23:00 +13°C° 0 mm 2 m/S 762 mmHg 82%

Morgen, 7 Juli, Dienstag

Zeit Temperatur Niederschläge Wind Luftdruck Luftfeuchtigkeit
00:00 +12°C° 0 mm 2 m/S 763 mmHg 84%
01:00 +12°C° 0 mm 2 m/S 763 mmHg 84%
02:00 +12°C° 0 mm 1 m/S 763 mmHg 85%
03:00 +11°C° 0 mm 1 m/S 763 mmHg 86%
04:00 +12°C° 0 mm 1 m/S 763 mmHg 82%
05:00 +13°C° 0 mm 1 m/S 762 mmHg 78%
06:00 +14°C° 0 mm 1 m/S 762 mmHg 73%
07:00 +16°C° 0 mm 2 m/S 762 mmHg 67%
08:00 +17°C° 0 mm 2 m/S 762 mmHg 61%
09:00 +19°C° 0 mm 3 m/S 762 mmHg 55%
10:00 +20°C° 0.1 mm 4 m/S 762 mmHg 53%
11:00 +21°C° 0.1 mm 5 m/S 761 mmHg 51%
12:00 +22°C° 0.1 mm 5 m/S 761 mmHg 49%
13:00 +22°C° 0.1 mm 5 m/S 761 mmHg 49%
14:00 +21°C° 0.1 mm 5 m/S 761 mmHg 49%
15:00 +21°C° 0.1 mm 5 m/S 760 mmHg 48%
16:00 +21°C° 0 mm 4 m/S 760 mmHg 51%
17:00 +20°C° 0 mm 4 m/S 760 mmHg 54%
18:00 +20°C° 0 mm 3 m/S 760 mmHg 57%
19:00 +19°C° 0 mm 3 m/S 760 mmHg 58%
20:00 +18°C° 0 mm 2 m/S 760 mmHg 60%
21:00 +18°C° 0 mm 2 m/S 760 mmHg 61%
22:00 +17°C° 0.1 mm 2 m/S 760 mmHg 65%
23:00 +16°C° 0.1 mm 2 m/S 760 mmHg 70%

übermorgen, 8 Juli, Mittwoch

Zeit Temperatur Niederschläge Wind Luftdruck Luftfeuchtigkeit
00:00 +16°C° 0.1 mm 2 m/S 759 mmHg 74%
01:00 +16°C° 0.1 mm 2 m/S 759 mmHg 74%
02:00 +16°C° 0.1 mm 2 m/S 759 mmHg 74%
03:00 +16°C° 0.1 mm 2 m/S 758 mmHg 74%
04:00 +14°C° 0.6 mm 3 m/S 758 mmHg 78%
05:00 +13°C° 0.6 mm 3 m/S 758 mmHg 82%
06:00 +13°C° 0.6 mm 4 m/S 758 mmHg 87%
07:00 +13°C° 0.2 mm 4 m/S 758 mmHg 87%
08:00 +14°C° 0.2 mm 4 m/S 758 mmHg 87%
09:00 +14°C° 0.2 mm 4 m/S 759 mmHg 88%
10:00 +15°C° 0.2 mm 5 m/S 759 mmHg 85%
11:00 +16°C° 0.2 mm 5 m/S 759 mmHg 83%
12:00 +17°C° 0.2 mm 5 m/S 759 mmHg 81%
13:00 +19°C° 0.5 mm 5 m/S 759 mmHg 80%
14:00 +19°C° 0.5 mm 4 m/S 759 mmHg 79%
15:00 +19°C° 0.5 mm 4 m/S 759 mmHg 78%
16:00 +19°C° 0.4 mm 4 m/S 760 mmHg 78%
17:00 +20°C° 0.4 mm 3 m/S 760 mmHg 78%
18:00 +20°C° 0.4 mm 3 m/S 760 mmHg 78%
19:00 +19°C° 0.1 mm 2 m/S 760 mmHg 80%
20:00 +18°C° 0.1 mm 2 m/S 760 mmHg 83%
21:00 +18°C° 0.1 mm 1 m/S 761 mmHg 86%
22:00 +16°C° 0 mm 1 m/S 761 mmHg 87%
23:00 +15°C° 0 mm 1 m/S 761 mmHg 88%

9 Juli, Donnerstag

Zeit Temperatur Niederschläge Wind Luftdruck Luftfeuchtigkeit
00:00 +15°C° 0 mm 1 m/S 761 mmHg 89%
01:00 +15°C° 0 mm 1 m/S 761 mmHg 90%
02:00 +14°C° 0 mm 1 m/S 761 mmHg 90%
03:00 +14°C° 0 mm 1 m/S 761 mmHg 90%
04:00 +15°C° 0 mm 1 m/S 761 mmHg 88%
05:00 +16°C° 0 mm 1 m/S 761 mmHg 87%
06:00 +17°C° 0 mm 2 m/S 761 mmHg 85%
07:00 +18°C° 0 mm 2 m/S 761 mmHg 80%
08:00 +19°C° 0 mm 3 m/S 761 mmHg 75%
09:00 +21°C° 0 mm 3 m/S 761 mmHg 70%
10:00 +22°C° 0 mm 3 m/S 760 mmHg 65%
11:00 +24°C° 0 mm 3 m/S 760 mmHg 60%
12:00 +26°C° 0 mm 3 m/S 760 mmHg 55%
13:00 +26°C° 0 mm 4 m/S 759 mmHg 54%
14:00 +27°C° 0 mm 4 m/S 759 mmHg 52%
15:00 +28°C° 0 mm 4 m/S 758 mmHg 50%
16:00 +27°C° 0.1 mm 4 m/S 758 mmHg 54%
17:00 +27°C° 0.1 mm 3 m/S 758 mmHg 58%
18:00 +26°C° 0.1 mm 3 m/S 758 mmHg 62%
19:00 +25°C° 0.2 mm 3 m/S 757 mmHg 66%
20:00 +24°C° 0.2 mm 3 m/S 757 mmHg 71%
21:00 +21°C° 0.2 mm 3 m/S 757 mmHg 76%
22:00 +21°C° 0.5 mm 3 m/S 757 mmHg 78%
23:00 +20°C° 0.5 mm 3 m/S 756 mmHg 80%

10 Juli, Freitag

Zeit Temperatur Niederschläge Wind Luftdruck Luftfeuchtigkeit
00:00 +20°C° 0.5 mm 3 m/S 756 mmHg 83%
01:00 +20°C° 0.3 mm 3 m/S 755 mmHg 84%
02:00 +19°C° 0.3 mm 3 m/S 755 mmHg 85%
03:00 +19°C° 0.3 mm 3 m/S 755 mmHg 86%
04:00 +19°C° 0.4 mm 3 m/S 755 mmHg 85%
05:00 +19°C° 0.4 mm 4 m/S 755 mmHg 85%
06:00 +19°C° 0.4 mm 4 m/S 754 mmHg 85%
07:00 +19°C° 0.1 mm 5 m/S 755 mmHg 84%
08:00 +19°C° 0.1 mm 5 m/S 755 mmHg 82%
09:00 +19°C° 0.1 mm 5 m/S 755 mmHg 80%
10:00 +19°C° 0.1 mm 5 m/S 755 mmHg 73%
11:00 +20°C° 0.1 mm 6 m/S 756 mmHg 66%
12:00 +20°C° 0.1 mm 6 m/S 756 mmHg 58%
13:00 +20°C° 0 mm 6 m/S 756 mmHg 55%
14:00 +21°C° 0 mm 6 m/S 756 mmHg 52%
15:00 +21°C° 0 mm 7 m/S 757 mmHg 48%
16:00 +20°C° 0 mm 6 m/S 757 mmHg 51%
17:00 +19°C° 0 mm 5 m/S 758 mmHg 55%
18:00 +17°C° 0 mm 5 m/S 758 mmHg 58%
19:00 +17°C° 0 mm 4 m/S 759 mmHg 63%
20:00 +14°C° 0 mm 4 m/S 759 mmHg 68%
21:00 +13°C° 0 mm 3 m/S 760 mmHg 73%
22:00 +13°C° 0 mm 3 m/S 761 mmHg 75%
23:00 +12°C° 0 mm 3 m/S 761 mmHg 76%

11 Juli, Samstag

Zeit Temperatur Niederschläge Wind Luftdruck Luftfeuchtigkeit
00:00 +11°C° 0 mm 3 m/S 761 mmHg 78%
01:00 +12°C° 0 mm 2 m/S 761 mmHg 78%
02:00 +12°C° 0 mm 2 m/S 762 mmHg 79%
03:00 +10°C° 0 mm 2 m/S 762 mmHg 79%
04:00 +12°C° 0 mm 2 m/S 762 mmHg 77%
05:00 +12°C° 0 mm 3 m/S 762 mmHg 74%
06:00 +13°C° 0 mm 3 m/S 763 mmHg 71%
07:00 +14°C° 0.1 mm 3 m/S 763 mmHg 70%
08:00 +14°C° 0.1 mm 3 m/S 763 mmHg 69%
09:00 +16°C° 0.1 mm 3 m/S 763 mmHg 67%
10:00 +17°C° 0.2 mm 3 m/S 764 mmHg 63%
11:00 +19°C° 0.2 mm 3 m/S 764 mmHg 58%
12:00 +20°C° 0.2 mm 3 m/S 764 mmHg 54%
13:00 +20°C° 0.3 mm 3 m/S 764 mmHg 53%
14:00 +20°C° 0.3 mm 3 m/S 764 mmHg 52%
15:00 +21°C° 0.3 mm 3 m/S 764 mmHg 51%
16:00 +20°C° 0.1 mm 3 m/S 764 mmHg 54%
17:00 +19°C° 0.1 mm 4 m/S 765 mmHg 57%
18:00 +18°C° 0.1 mm 4 m/S 765 mmHg 61%
19:00 +17°C° 0 mm 3 m/S 765 mmHg 64%
20:00 +14°C° 0 mm 3 m/S 766 mmHg 68%
21:00 +14°C° 0 mm 2 m/S 766 mmHg 72%
22:00 +13°C° 0 mm 2 m/S 766 mmHg 74%
23:00 +13°C° 0 mm 1 m/S 766 mmHg 77%
Mehr zeigen